Location: Newark
(34.1333°N, 7.9667°W)
Time: 08:29:05
(UTC+00:00)

S-56A Canister/Altair - Pass Details

Date: 04 December 2021
Orbit: 634 x 2499 km, 38.9° (Epoch: 25 January)

Event Time Altitude Azimuth Distance (km) Brightness Sun altitude
Rises 20:22:45 0° 190° (S) 6,078 12.3 -36.7°
Reaches altitude 10° 20:28:56 10° 174° (S) 4,874 11.5 -38.0°
Enters shadow 20:32:42 15° 159° (SSE) 4,287 11.1 -38.7°
